Inquirer Daily News

Weather

Get conditions and forecasts for any City, State, ZIP code or Country:  
Trenton, NJ
on Friday, January 18, 2013

Friday
Previous Day Next Day
Daily Summary
 ActualAverageRecord
Temperature
Mean Temperature °F 31°F  
Max Temperature 36°F 39°F 64°F (2006)
Min Temperature 25°F 23°F -4°F (1893)
Degree Days
Heating Degree Days 34 34  
Month to date heating degree days 493 611  
Since 1 July heating degree days 2251 2506  
Cooling Degree Days 0 0  
Month to date cooling degree days 0 0  
Year to date cooling degree days 0 0  
Moisture
Dew Point 13°F   
Average Humidity 51    
Maximum Humidity 69    
Minimum Humidity 32    
Precipitation
Precipitation T in 0.09 in 1.30 in (1999)
Month to date precipitation 1.63 1.89  
Year to date precipitation 1.63 1.89  
Wind
Wind Speed 7 mph   
Max Wind Speed 24 mph   
Max Gust Speed 33 mph   
Visibility 10 miles   
Events     

Key: T is trace of precipitation, MM is missing value
Source: NWS Daily Summary
Time(EST)TemperatureDew PointHumidity Pressure Visibility Wind DirectionWind SpeedGust SpeedPrecipitationEvents Conditions
12:53 AM 35.1°F 25.0°F 67% 30.03 in 10.0 miles Calm Calm - N/A   Mostly Cloudy
1:53 AM 35.1°F 24.1°F 64% 30.06 in 10.0 miles Calm Calm - N/A   Partly Cloudy
2:53 AM 34.0°F 25.0°F 70% 30.06 in 10.0 miles Calm Calm - N/A   Overcast
3:53 AM 34.0°F 25.0°F 70% 30.07 in 10.0 miles North 5.8 mph - 0.00 in   Scattered Clouds
4:53 AM 33.1°F 24.1°F 70% 30.10 in 10.0 miles NNE 5.8 mph - N/A   Overcast
5:53 AM 33.1°F 21.9°F 64% 30.16 in 10.0 miles NNE 16.1 mph 20.7 mph N/A   Overcast
6:53 AM 30.0°F 16.0°F 56% 30.24 in 10.0 miles North 18.4 mph 27.6 mph N/A   Mostly Cloudy
7:53 AM 28.0°F 10.0°F 47% 30.30 in 10.0 miles North 16.1 mph 23.0 mph N/A   Clear
8:53 AM 28.0°F 7.0°F 41% 30.37 in 10.0 miles NNW 13.8 mph 21.9 mph N/A   Clear
9:53 AM 28.0°F 5.0°F 38% 30.42 in 10.0 miles North 17.3 mph 27.6 mph N/A   Clear
10:53 AM 27.0°F 8.1°F 45% 30.43 in 10.0 miles North 16.1 mph 24.2 mph N/A   Partly Cloudy
11:53 AM 30.0°F 8.1°F 40% 30.43 in 10.0 miles North 16.1 mph 19.6 mph N/A   Clear
12:53 PM 30.0°F 8.1°F 40% 30.41 in 10.0 miles NNW 8.1 mph 17.3 mph N/A   Clear
1:53 PM 30.0°F 6.1°F 36% 30.42 in 10.0 miles NNE 8.1 mph 18.4 mph N/A   Clear
2:53 PM 30.0°F 5.0°F 35% 30.43 in 10.0 miles NNW 3.5 mph - N/A   Clear
3:53 PM 30.0°F 5.0°F 35% 30.44 in 10.0 miles NNW 6.9 mph - N/A   Clear
4:53 PM 28.9°F 6.1°F 38% 30.45 in 10.0 miles NW 5.8 mph - N/A   Clear
5:53 PM 28.9°F 7.0°F 40% 30.46 in 10.0 miles Calm Calm - N/A   Clear
6:53 PM 28.0°F 8.1°F 43% 30.48 in 10.0 miles Calm Calm - N/A   Clear
7:53 PM 27.0°F 10.9°F 51% 30.47 in 10.0 miles Calm Calm - N/A   Clear
8:53 PM 25.0°F 12.0°F 58% 30.45 in 10.0 miles SSW 4.6 mph - N/A   Clear
10:53 PM 26.1°F 14.0°F 60% 30.42 in 10.0 miles South 8.1 mph - N/A   Clear
11:53 PM 26.1°F 14.0°F 60% 30.40 in 10.0 miles SW 8.1 mph - N/A   Clear
Astronomy
Sunrise:07:18 AM (EST) Moon Rise:10:54 AM (EST)1/18
Sunset:05:01 PM (EST) Moon Set:No Moon Set/
Moon Phase
Jan. 18 Jan. 18 Jan. 26 Feb. 03 Feb. 10

Copyright © 2014 The Weather Underground, Inc.